Regional Weather Roundup
Issued by NWS Wakefield, VA

Home | Current Version | Previous Version | Graphics & Text | Print | Product List | Glossary On
Versions: 1 2 3 4 5 6 7 8 9 10 11 12 13 14 15 16 17 18 19 20 21 22 23 24 25 26 27 28 29 30 31 32 33 34 35 36 37 38 39 40 41 42 43 44 45 46 47 48 49 50
000
ASUS41 KAKQ 280110
RWRAKQ

REGIONAL WEATHER ROUNDUP
NATIONAL WEATHER SERVICE WAKEFIELD VA
800 PM EST THU NOV 27 2014

Note: "fair" indicates few or no clouds below 12,000 feet with no
significant weather and/or obstructions to visibility. * = Denotes
station may not report precipitation (e.g., rain,snow,etc.),
thunder or fog.

VAZ042-051-052>054-056-280200-
NORTHERN VIRGINIA

CITY           SKY/WX    TMP DP  RH WIND       PRES   REMARKS
WASH NATIONAL  PTCLDY    40  27  59 W6        30.16R
DULLES         CLOUDY    36  28  73 W13       30.15R
FORT BELVOIR   CLEAR     37  28  71 NW8       30.16R
QUANTICO       CLEAR     37  30  75 NW7       30.17R
FREDERICKSBRG* CLEAR     39  32  76 CALM      30.16R
STAFFORD*      CLEAR     34  29  82 CALM      30.20R
WARRENTON      PTCLDY    32  32 100 CALM      30.15R
CULPEPER*      CLEAR     34  28  80 CALM      30.16R
MANASSAS*      PTCLDY    34  30  86 CALM      30.16R
LEESBURG*      CLOUDY    37  32  81 NW3       30.15R
WINCHESTER     CLOUDY    36  25  64 W3        30.14R
FRONT ROYAL*   CLOUDY    36  28  75 W7        30.14R
LURAY*         CLOUDY    36  30  80 W6        30.15R
$$

VAZ048-049-060>072-079>083-280200-
CENTRAL AND SOUTH CENTRAL VIRGINIA

CITY           SKY/WX    TMP DP  RH WIND       PRES   REMARKS
RICHMOND       CLOUDY    41  36  82 NW6       30.16R
CHESTERFIELD*  CLOUDY    39  27  60 NW9       30.17R
PETERSBURG*    CLOUDY    40  38  91 W3        30.17R
HANOVER        PTCLDY    36  32  85 CALM      30.17R
TAPPAHANNOCK*  CLOUDY    39  29  67 CALM      30.15R
QUINTON*       MOCLDY    35  35  99 CALM      30.15R
CHARLOTTSVILLE CLEAR     36  21  54 CALM      30.17R
GORDONSVILLE*  CLEAR     37  23  56 W6        30.16R
ORANGE*        CLOUDY    37  27  65 SW6       30.17R
LOUISA*        PTCLDY    37  27  65 W9        30.15R
BUMPASS*       MOCLDY    38  28  66 CALM      30.15S
FARMVILLE*     CLEAR     37  28  68 CALM      30.18R
CREWE*         CLOUDY    40  28  64 NW8       30.17R
FORT PICKETT*  CLOUDY    38  31  75 NW9       30.17R
CHASE CITY*    CLEAR     38  29  69 NW5       30.19R
CLARKSVILLE*   CLEAR     37  27  65 NW8G18    30.19R
SOUTH HILL*    PTCLDY    38  28  68 NW6       30.23R
LAWRENCEVILLE* CLOUDY    39  36  89 NW3       30.17R
$$

VAZ088>098-280200-
SOUTHEAST VIRGINIA

CITY           SKY/WX    TMP DP  RH WIND       PRES   REMARKS
NORFOLK        MOCLDY    40  34  79 NW3       30.13R
VIRGINIA BEACH PTCLDY    41  34  76 N8        30.12R
NORFOLK NAVAL  MOCLDY    42  35  76 NW8       30.15R
WEST POINT*    MOCLDY    39  36  89 CALM      30.17R
SALUDA*        FAIR      39  32  76 NW8G16    30.14R
NEWPORT NEWS   LGT RAIN  39  34  82 NW5       30.15R
LANGLEY AFB    PTCLDY    37  37 100 W3        30.15R
FORT EUSTIS    MOCLDY    40  35  84 NW8       30.14R
WILLIAMSBURG*    N/A     37  36  93 W6        30.16R
HR EXEC AP*    CLOUDY    37  34  87 CALM      30.16R
FRANKLIN*      CLOUDY    39  39 100 W3        30.16R
WAKEFIELD      CLOUDY    40  37  89 CALM      30.16R
$$

VAZ020-022-025-037-045-280200-
WEST CENTRAL AND SOUTHWEST VIRGINIA

CITY           SKY/WX    TMP DP  RH WIND       PRES   REMARKS
STAUNTON*      CLOUDY    32  22  66 CALM      30.18R
WAYNESBORO*    CLOUDY    32  21  64 W3        30.16R
HOT SPRINGS VA LGT SNOW  22  22  98 W16G24    30.03S WCI   9
LYNCHBURG      MOCLDY    35  21  56 NW7       30.20R
DANVILLE       CLOUDY    40  25  55 NW12      30.23R
SOUTH BOSTON*  CLOUDY    38  23  55 NW8G17    30.22R
MARTINSVILLE   CLOUDY    38  24  57 NW15G21   30.25R
ROANOKE        CLOUDY    35  19  52 NW16G22   30.24R
BLACKSBURG     CLOUDY    30  23  74 NW12G23   30.21R WCI  21
DUBLIN*        CLOUDY    31  21  66 NW23G32   30.22R WCI  17
MARION*        CLOUDY    28  19  69 W17G26    30.23R WCI  16
HILLSVILLE*    CLOUDY    28  20  71 NW12G21   30.17R WCI  18
RICHLANDS*     FLURRIES  28  23  81 NW9       30.25R
WISE*          FLURRIES  27  23  86 W6        30.28R
ABINGDON*      CLOUDY    31  25  78 N9G20     30.29R
$$

MDZ021>025-VAZ099-100-280200-
SOUTHERN MARYLAND AND THE DELMARVA PENINSULA

CITY           SKY/WX    TMP DP  RH WIND       PRES   REMARKS
PATUXENT RIVER MOCLDY    40  29  64 NW13      30.13R
BAY BRIDGE APT   N/A     37  30  75 NW10      30.13R
LEONARDTOWN    CLOUDY    37  30  75 NW5       30.15R
DOVER          CLEAR     33  28  83 NW8       30.09R
GEORGETOWN     CLEAR     36  27  69 NW5       30.12R
EASTON         NOT AVBL
CAMBRIDGE      MOCLDY    36  34  93 CALM      30.12R
SALISBURY      PTCLDY    36  30  79 NW6       30.11R
OCEAN CITY     CLEAR     35  29  78 NW3       30.10R
WALLOPS ISLAND CLEAR     35  32  88 NW5       30.12R
ACCOMACK*      CLOUDY    36  32  87 CALM      30.11R
$$

NCZ012>017-030>032-280200-
NORTH CENTRAL AND EASTERN NORTH CAROLINA

CITY           SKY/WX    TMP DP  RH WIND       PRES   REMARKS
ROANOKE RAPIDS CLOUDY    41  36  81 NW5       30.17R
RALEIGH        PTCLDY    40  28  62 NW6       30.20R
ELIZABETH CITY CLOUDY    45  39  79 NW8       30.14R
AHOSKIE*       CLOUDY    40  37  90 CALM      30.17R
EDENTON*       PTCLDY    41  39  93 NW6       30.15R
CURRITUCK*     MOCLDY    41  38  89 CALM      30.14R
KILL DEVIL HLS LGT RAIN  43  40  89 NW8       30.10R
MANTEO         MOCLDY    43  39  86 N16       30.12R
CAPE HATTERAS  PTCLDY    44  39  82 NW13G21   30.11R
TARBORO*       CLEAR     38  36  90 NW3       30.18R
GOLDSBORO      CLOUDY    44  41  92 CALM      30.18R
WASHINGTON     CLEAR     40  37  90 CALM      30.16R
GREENVILLE     CLEAR     41  37  87 CALM      30.19R
NEW BERN       CLEAR     44  37  76 W6        30.17R
WILMINGTON     CLEAR     43  37  79 NW5       30.19R
$$

VAZ048-280200-
ELSEWHERE

CITY           SKY/WX    TMP DP  RH WIND       PRES   REMARKS
HARRISBURG PA  PTCLDY    32  29  88 NW6       30.10R
BALTIMORE      PTCLDY    35  28  75 W3        30.12R
ANNAPOLIS      MOCLDY    38  29  70 CALM      30.13R
ANDREWS AFB    CLEAR     37  28  69 NW8       30.14R
PHILADELPHIA   CLEAR     36  26  67 W7        30.11R
WILDWOOD NJ*   CLEAR     37  27  65 NW6       30.08S
HENDERSON NC   CLEAR     37  26  64 NW5       30.20R
GREENSBORO     MOCLDY    39  25  57 NW10      30.21R
ROCKY MOUNT    CLEAR     40  34  79 NW8       30.19R
$$

VAZ100-280200-
MARINE

STATION/POSITION TIME  TEMP    WIND        PRES    WAVE   SWELL
                       AIR SEA DIR/SP/G            HT/PER HT/PER
                 (UTC) (F)     (DEG/KT/KT) (MB)    (FT/S) (FT/S)
CAPE MAY NJ      0100   39 47  330/ 14/ 20 1018.6S
LEWES DE         0100   41 46  320/ 14/ 22 1019.0R
15NM E FENWICK I 0100   43 54              1018.0R   4/ 9
OCEAN-CITY-INLET 0100   40 48  340/  9/ 11 1018.8R
WACHAPREAGUE VA  0100   38 46   CALM  /  1 1019.8R
THOMAS POINT MD  0100   40 47  300/  8/  9 1021.6R
GOOSES REEF MD   0100   42 47  320/ 12/ 14 1020.8R   2/ 3
COVE POINT MD    0100   40     330/ 11/ 13 1020.0S
SOLOMONS ISLAND  0100      48                N/A
BISHOPS HEAD MD  0100   40 44  330/  9/ 12 1019.3R
PINEY POINT MD   0100          350/ 17/ 19   N/A
POTOMAC MD       0100   42 49  350/ 12/ 16 1019.4R   1/ 2
CAMBRIDGE MD     0100   42 45  320/ 10/ 13 1019.8R
LEWISETTA VA     0100   42 48  330/ 11/ 15 1020.0S
RAPPAHANNOCK LGT 0100          320/ 19/ 20 1020.1S
STINGRAY PT      0100   42 49  320/ 16/ 17 1020.7R   1/ 2
YORK RVR RNG VA  0100   40     330/  9/ 10 1020.0R
YORKTOWN VA      0100   41 50  280/  7/  8 1020.3R
JAMESTOWN VA     0100   41 49  310/  8/ 12   N/A     0
DOMINION TERM VA 0100   42     340/  3/  6 1020.3S
KIPTOPEKE VA     0100      55  330/ 14/ 16   N/A
CHES BAY BRIDGE  0100   43 51  320/ 14/ 17 1019.5F
CAPE HENRY VA    0100   44     330/ 16/ 20 1018.6R
CHESAPEAKE LGHT  0000   44     340/ 20/ 23 1019.6R
WILLOUBY STN VA  0100   41     340/  7/  8 1019.0R
S CRANEY ISL VA  0100          290/  5/  8 1020.3R
CAPE HENRY BUOY  0000      56                N/A     4/ 8   2/14
1ST LANDING BUOY 0100   45 52  340/ 16/ 17 1019.5S   2/ 3
CAPE CHARLES BUO 0100      54                N/A     3/ 9   2/ 9
64NM E OF VA BCH 0100   49 64  340/ 21/ 27 1017.4R   6/ 5   3/ 9
DUCK PIER NC     0100   45 54  330/ 19/ 23 1018.6R
44100 DUCK FRF   0000      57                N/A     6/ 5   2/11
44056 DUCK FRF   0100      54                N/A     4/ 8   2/14
OREGON INLET NC  0100   45 56  310/ 16/ 20 1019.1R
HATTERAS NC      0100   47 59  330/ 22/ 26 1019.8R
DIAMOND SHLS NC  0100   50     320/ 21/ 27 1017.9R   7/ 5   2/ 9



USA.gov is the U.S. government's official web portal to all federal, state and local government web resources and services.